Dewpoint
-8 -7 -7 -7 -7 -7 -9 -10 -12 -13 -14 -14 -15 -17 -13 -11 -9 -7 -7 -8 -7 -7 -7 -7 -7 -8 -8 -8 -7 -7 -6 -7 -6 -3 0 2 3 5 6 6 6 8 9
-10 -9 -9 -10 -11 -10 -10 -11 -13 -15 -17 -18 -19 -20 -19 -13 -11 -11 -10 -12 -12 -11 -8 -7 -7 -7 -8 -8 -8 -8 -7 -7 -7 -5 -2 -0 3 4 6 7 4 7 9
-11 -11 -10 -12 -12 -11 -10 -10 -12 -13 -15 -18 -20 -22 -21 -17 -16 -17 -19 -20 -20 -20 -15 -10 -7 -8 -8 -8 -9 -8 -8 -7 -7 -6 -5 -2 -0 2 5 6 7 6 6
-11 -10 -10 -11 -12 -11 -10 -10 -11 -12 -14 -18 -22 -26 -25 -18 -16 -18 -20 -23 -23 -23 -22 -18 -10 -8 -9 -9 -9 -9 -8 -8 -8 -8 -7 -5 -3 -1 -0 2 5 5 5
-9 -9 -10 -10 -11 -11 -10 -10 -11 -12 -14 -19 -21 -27 -29 -26 -21 -22 -23 -24 -25 -25 -25 -24 -23 -17 -8 -8 -9 -9 -9 -9 -9 -8 -8 -8 -7 -4 -3 -3 -0 2 2
-9 -8 -11 -11 -11 -11 -11 -11 -12 -13 -14 -20 -27 -30 -31 -30 -29 -28 -27 -27 -28 -29 -29 -28 -28 -28 -22 -12 -8 -8 -9 -9 -9 -9 -9 -9 -9 -7 -6 -5 -3 -1 -1
-9 -11 -11 -11 -11 -12 -12 -12 -13 -14 -16 -19 -25 -28 -30 -30 -30 -29 -29 -30 -31 -31 -31 -31 -30 -30 -27 -25 -20 -15 -12 -10 -10 -10 -10 -10 -9 -9 -7 -6 -5 -4 -5
-10 -13 -12 -12 -12 -12 -14 -14 -14 -14 -14 -16 -21 -25 -27 -28 -28 -28 -28 -28 -29 -29 -29 -29 -27 -28 -26 -30 -30 -26 -23 -20 -14 -11 -11 -11 -10 -9 -9 -8 -7 -6 -6
-11 -14 -13 -13 -12 -13 -13 -14 -15 -15 -14 -14 -17 -23 -25 -26 -26 -25 -25 -26 -26 -26 -26 -26 -21 -22 -19 -28 -29 -30 -29 -28 -25 -22 -17 -17 -13 -11 -10 -10 -10 -11 -10
-12 -15 -15 -12 -15 -16 -14 -13 -13 -15 -16 -15 -16 -19 -23 -26 -27 -26 -26 -26 -26 -25 -24 -23 -22 -15 -21 -24 -27 -28 -28 -28 -30 -31 -30 -26 -25 -21 -14 -10 -9 -10 -10
-19 -20 -20 -20 -20 -21 -20 -17 -16 -15 -16 -16 -18 -23 -24 -28 -29 -29 -27 -27 -26 -25 -23 -24 -22 -19 -23 -21 -24 -27 -26 -26 -28 -29 -30 -29 -27 -26 -22 -20 -13 -10 -10
-23 -23 -25 -25 -25 -24 -23 -23 -21 -20 -22 -23 -25 -26 -32 -31 -33 -32 -30 -28 -26 -25 -23 -21 -22 -24 -25 -25 -25 -27 -28 -28 -28 -28 -29 -29 -28 -27 -27 -23 -22 -16 -12
-31 -31 -30 -29 -28 -27 -25 -25 -26 -28 -30 -32 -33 -34 -34 -35 -35 -34 -33 -31 -27 -24 -22 -21 -22 -22 -23 -24 -25 -26 -26 -27 -27 -28 -28 -28 -26 -24 -26 -27 -27 -26 -21
-31 -30 -30 -29 -28 -26 -25 -27 -28 -30 -32 -33 -34 -34 -35 -35 -35 -36 -35 -33 -27 -23 -22 -20 -21 -22 -23 -23 -24 -25 -25 -26 -26 -26 -27 -28 -28 -27 -26 -25 -26 -27 -27
-30 -30 -29 -28 -27 -27 -26 -26 -27 -28 -29 -31 -29 -29 -30 -31 -33 -34 -33 -29 -21 -21 -21 -22 -23 -23 -23 -23 -23 -24 -24 -24 -25 -26 -27 -27 -28 -27 -26 -25 -24 -23 -21
-29 -28 -27 -25 -24 -26 -26 -27 -28 -28 -29 -27 -24 -22 -20 -19 -24 -30 -27 -17 -14 -18 -19 -21 -21 -21 -20 -21 -22 -23 -22 -22 -22 -25 -26 -26 -26 -25 -25 -25 -24 -21 -20
-25 -26 -25 -22 -27 -28 -28 -29 -30 -27 -27 -22 -19 -18 -16 -15 -17 -19 -22 -21 -19 -20 -19 -18 -18 -18 -18 -20 -21 -21 -21 -21 -21 -24 -25 -25 -26 -26 -23 -23 -21 -21 -22
-21 -26 -24 -24 -28 -29 -30 -30 -28 -28 -22 -19 -15 -13 -13 -14 -14 -14 -17 -18 -17 -18 -19 -18 -18 -18 -18 -19 -20 -21 -22 -22 -23 -24 -25 -25 -25 -25 -24 -22 -21 -20 -19
-22 -22 -23 -29 -31 -31 -29 -27 -25 -20 -18 -15 -13 -12 -12 -13 -13 -15 -17 -16 -16 -16 -17 -18 -18 -19 -19 -20 -21 -22 -22 -22 -22 -23 -23 -23 -24 -25 -25 -23 -22 -21 -20
-28 -29 -30 -30 -28 -26 -26 -23 -20 -16 -13 -12 -13 -13 -13 -13 -13 -16 -16 -16 -16 -16 -17 -18 -19 -19 -20 -20 -21 -22 -23 -23 -22 -22 -23 -23 -23 -23 -24 -23 -22 -21 -21
-27 -27 -28 -27 -24 -19 -21 -18 -12 -12 -12 -12 -12 -12 -13 -13 -14 -15 -15 -15 -16 -16 -18 -18 -19 -19 -20 -20 -21 -22 -22 -22 -22 -23 -23 -23 -23 -23 -23 -23 -22 -21 -22
-26 -26 -22 -16 -14 -14 -15 -13 -12 -13 -12 -13 -13 -13 -13 -14 -15 -14 -15 -15 -16 -17 -18 -18 -19 -19 -19 -20 -20 -20 -21 -22 -22 -22 -22 -22 -23 -23 -23 -22 -22 -22 -22
-25 -24 -19 -14 -12 -11 -11 -11 -12 -12 -13 -12 -12 -13 -14 -15 -14 -15 -15 -16 -17 -17 -18 -18 -19 -19 -19 -20 -20 -19 -20 -21 -21 -21 -21 -22 -23 -24 -24 -22 -22 -22 -22
-24 -24 -24 -21 -16 -13 -11 -11 -11 -12 -12 -13 -14 -14 -14 -15 -15 -16 -16 -16 -17 -17 -18 -18 -19 -19 -19 -19 -19 -19 -19 -20 -20 -20 -20 -21 -23 -23 -24 -23 -22 -22 -22
-24 -24 -24 -22 -18 -13 -11 -11 -11 -12 -12 -13 -13 -14 -15 -15 -16 -16 -16 -17 -17 -17 -18 -19 -19 -19 -19 -19 -19 -19 -19 -20 -20 -20 -20 -21 -22 -22 -22 -24 -22 -23 -23
-22 -22 -22 -22 -17 -13 -12 -11 -12 -12 -12 -13 -13 -15 -15 -15 -16 -17 -17 -18 -18 -18 -18 -18 -18 -18 -18 -18 -19 -19 -19 -19 -20 -20 -21 -21 -22 -22 -23 -24 -23 -23 -23
Wind_Speed
5 5 3 3 3 6 11 14 11 14 15 16 19 21 19 19 17 17 17 18 18 19 20 21 22 24 24 24 24 25 24 24 30 32 30 26 26 27 24 30 25 24 17
2 1 1 5 5 6 10 15 14 16 18 17 19 21 19 18 19 19 21 21 22 23 21 21 24 25 25 24 26 30 30 25 22 26 22 20 16 15 8 20 24 18 16
4 4 8 10 8 8 11 16 17 16 17 16 18 22 20 17 17 19 21 22 23 25 24 22 23 25 25 24 25 28 32 30 25 19 21 18 20 16 13 10 17 22 18
7 8 9 11 12 12 13 15 16 17 17 15 16 21 21 16 16 18 19 21 23 26 26 25 23 25 24 23 23 26 30 32 32 31 30 28 28 25 20 16 12 12 16
9 10 9 10 13 14 13 13 14 15 16 17 17 21 23 21 20 18 19 21 23 25 27 28 27 25 20 17 20 22 27 31 33 32 35 37 39 35 33 28 22 14 11
9 6 9 8 10 9 8 8 8 11 14 16 16 19 21 23 21 19 19 20 22 24 27 28 28 27 29 21 17 16 21 27 29 32 34 35 38 38 33 32 28 24 19
7 6 8 8 8 6 6 5 7 8 9 13 15 16 19 21 21 19 19 20 22 24 26 27 28 29 30 28 24 22 20 20 23 23 27 30 33 33 30 31 29 21 12
8 9 8 9 8 6 7 6 6 6 9 11 13 15 17 19 19 19 19 19 20 23 24 25 27 28 29 31 29 28 27 27 26 25 24 25 25 29 28 29 28 21 11
9 9 11 9 8 9 8 6 4 4 4 8 11 13 16 18 19 19 19 19 19 21 22 24 26 27 27 27 28 29 28 27 26 25 24 25 26 29 29 30 35 35 29
15 12 13 12 10 10 9 6 2 3 4 4 9 12 15 17 18 20 20 20 20 20 21 23 24 25 25 27 29 30 30 29 28 27 26 25 27 27 29 30 31 34 34
15 13 13 12 10 8 7 6 3 1 3 5 7 11 13 16 18 20 20 21 22 22 22 24 24 24 24 25 26 28 28 26 27 28 29 29 29 31 31 29 26 26 29
13 13 11 8 7 6 4 3 1 1 3 6 8 10 13 14 16 18 20 21 21 21 22 22 22 22 22 23 24 25 26 27 28 30 32 33 33 33 31 29 26 21 18
15 13 11 8 6 4 2 1 2 4 6 8 9 11 13 14 15 17 18 18 18 18 19 18 19 19 20 20 22 22 25 29 31 32 34 34 32 29 27 27 25 24 22
15 13 11 8 6 4 3 1 2 4 6 8 10 12 13 15 17 20 21 21 19 18 18 18 18 17 18 19 21 23 25 27 28 29 29 29 28 29 29 31 31 30 29
15 13 10 9 8 6 6 5 6 7 9 10 11 13 14 16 18 21 21 19 19 18 19 19 19 20 21 23 24 24 24 25 27 28 28 28 29 29 29 30 31 31 32
16 14 13 11 9 8 7 8 9 10 11 12 13 14 16 17 18 20 21 16 14 17 19 20 20 21 23 24 25 25 25 26 26 27 27 28 30 29 28 28 29 31 32
16 16 14 12 10 10 10 11 12 12 12 12 12 14 16 17 18 23 23 17 18 18 19 21 21 21 22 23 22 22 23 23 23 26 27 28 28 27 28 28 29 29 31
19 17 14 13 13 13 13 13 13 12 12 12 12 14 16 18 19 25 20 18 18 20 22 20 20 21 21 23 23 23 22 22 23 24 26 27 27 28 27 27 28 29 29
21 19 17 16 15 15 14 13 12 12 11 11 12 15 18 19 19 24 16 16 19 20 24 20 18 19 20 20 21 22 21 21 22 23 26 27 27 28 27 26 27 28 28
20 20 19 18 16 15 14 12 12 11 11 12 15 16 17 18 19 19 14 15 19 20 24 20 19 18 19 19 19 21 21 21 21 24 27 28 27 27 27 27 27 29 30
20 20 18 17 15 14 15 14 12 14 13 15 16 16 17 18 19 15 14 16 19 19 21 21 19 18 18 19 19 21 23 22 19 24 28 29 30 29 28 26 26 28 30
21 19 18 16 14 14 12 13 15 15 15 17 16 18 18 20 17 15 16 19 18 20 19 21 19 16 18 18 19 22 26 25 21 25 29 31 31 31 29 28 27 28 30
21 20 20 19 18 15 15 16 16 16 15 15 17 18 19 17 16 17 17 18 19 18 19 19 18 18 19 19 20 23 25 27 24 26 30 32 32 32 31 29 28 29 30
21 21 22 22 22 21 21 20 19 18 17 18 17 17 17 17 16 17 17 18 18 18 18 19 20 20 20 22 23 24 26 28 27 28 29 33 32 34 34 31 28 27 28
21 22 22 22 21 19 19 19 18 18 16 17 18 17 17 16 16 16 16 16 17 19 19 20 21 23 24 26 29 28 29 29 30 30 30 33 33 34 37 32 26 23 26
19 19 21 22 21 20 19 18 18 18 19 18 17 17 16 16 16 15 15 16 17 19 21 23 25 26 26 27 28 28 29 28 27 27 30 28 31 36 38 30 22 20 26
Wind_Direction
200 218 275 334 346 327 346 360 3 8 10 9 16 13 12 12 16 21 22 8 10 9 12 13 7 7 2 359 360 353 340 330 318 315 310 306 307 306 278 279 287 303 296
173 194 9 26 10 4 10 21 22 32 25 25 22 18 19 23 25 24 25 20 21 17 15 15 13 12 11 7 7 3 2 356 340 328 327 316 305 319 293 265 265 295 305
67 71 60 36 38 41 37 32 32 34 26 27 23 20 20 27 34 34 36 33 31 29 24 19 18 14 12 8 14 14 12 14 11 359 345 343 343 331 299 285 252 264 286
81 73 64 47 55 55 48 34 33 32 25 30 30 27 25 32 39 40 37 35 34 34 32 30 29 23 12 3 11 18 18 19 18 19 16 11 9 6 11 358 278 295 269
81 69 68 58 56 57 51 34 29 26 26 32 40 36 32 34 33 36 35 33 33 34 33 32 35 37 27 15 16 21 26 25 24 20 19 18 16 14 15 9 3 349 333
103 86 87 78 75 66 67 39 30 28 25 29 38 40 37 38 33 29 32 33 32 32 31 31 31 33 34 25 30 34 38 29 25 26 22 22 22 21 16 17 12 360 353
124 125 108 103 99 87 96 76 49 36 26 36 34 38 36 38 34 30 29 27 29 28 28 26 28 28 29 29 33 31 34 43 36 27 29 26 21 25 28 22 24 24 48
149 129 121 121 113 110 98 83 59 38 28 23 29 29 30 31 29 28 26 26 23 25 23 22 24 23 24 24 28 32 32 34 37 31 33 27 33 25 33 34 35 42 22
156 145 140 136 141 127 101 78 55 49 36 9 13 23 23 23 21 20 20 21 21 21 20 21 22 20 18 22 25 28 30 34 39 39 40 42 41 41 31 31 32 26 30
163 157 158 159 152 148 143 131 77 8 14 356 2 12 19 17 15 14 14 17 19 18 17 21 22 17 18 19 22 23 26 25 26 28 32 33 34 38 39 38 31 29 29
180 170 164 164 162 152 155 170 187 4 5 29 12 6 11 10 11 9 9 11 13 12 10 15 15 14 16 20 24 25 25 22 28 29 29 29 29 30 34 36 36 31 26
176 170 164 160 150 154 166 170 171 26 25 12 8 0 7 6 5 4 4 5 5 6 6 10 7 8 11 12 16 19 18 20 22 25 26 26 24 24 25 26 33 39 40
170 166 163 166 169 173 193 160 63 17 9 0 353 357 357 2 1 359 1 3 0 2 1 3 360 2 6 10 13 13 14 17 18 21 22 21 21 20 18 21 23 24 28
176 173 175 185 197 204 219 230 313 331 338 340 340 342 348 350 352 355 356 354 356 357 359 359 358 1 6 12 13 15 18 20 20 18 17 16 13 15 16 16 14 13 11
183 185 190 200 214 236 262 274 284 299 318 328 333 338 342 344 350 351 349 348 349 352 353 348 354 360 5 9 12 13 14 15 16 14 13 12 12 10 12 14 13 11 12
194 201 209 216 229 244 261 281 296 308 319 327 336 345 349 354 351 351 354 353 359 344 346 353 358 1 3 4 5 7 9 9 11 10 11 10 10 9 6 9 10 10 8
204 213 222 233 247 266 283 290 297 301 311 322 332 339 339 347 348 353 344 345 356 340 346 351 351 352 354 357 0 0 2 2 2 7 6 6 6 6 5 8 7 5 2
216 226 230 236 248 261 272 280 289 301 309 321 329 328 327 334 337 338 328 333 346 346 346 341 343 343 344 348 353 354 354 355 358 4 3 2 1 1 0 2 5 2 358
224 230 239 249 254 261 269 279 289 293 303 314 317 312 312 322 325 328 312 329 332 333 337 333 336 337 337 340 349 351 349 350 352 359 359 358 357 356 354 354 356 356 355
228 232 238 248 256 261 268 277 282 293 296 288 294 296 302 310 312 323 309 316 319 323 327 327 329 329 332 337 345 349 348 348 354 356 356 355 353 352 349 348 350 351 350
239 244 250 255 261 271 272 275 280 285 277 283 290 292 294 298 310 314 310 315 317 316 322 325 326 325 330 334 342 348 349 349 352 353 353 352 350 347 344 342 341 345 344
242 244 247 255 265 271 269 262 268 281 279 283 279 286 293 303 304 303 307 314 314 317 319 326 331 335 335 336 339 342 343 345 345 346 347 345 344 342 339 337 336 339 338
243 244 249 256 263 271 274 273 275 277 274 277 277 288 296 298 300 300 300 306 310 313 321 325 330 335 340 334 334 334 334 336 335 336 339 337 337 338 336 332 329 332 333
246 248 249 250 252 255 260 268 273 283 277 283 285 288 292 295 295 298 302 305 308 314 319 323 328 331 330 328 327 329 324 327 325 324 324 326 327 333 336 328 323 323 326
252 252 251 251 254 256 259 263 267 271 267 282 286 288 291 292 294 301 305 305 306 310 315 317 321 322 321 322 322 321 317 316 316 316 310 313 317 325 330 323 317 317 322
252 252 252 251 253 255 258 262 268 273 273 281 282 286 286 290 296 299 306 310 310 310 310 312 312 309 310 315 313 309 308 310 311 304 303 303 310 317 321 317 307 312 314
Height
1513 1512 1511 1510 1509 1507 1506 1505 1502 1501 1499 1496 1493 1490 1488 1485 1482 1479 1477 1473 1469 1464 1460 1455 1450 1445 1441 1436 1431 1426 1419 1411 1400 1390 1387 1384 1383 1378 1378 1379 1376 1375 1376
1511 1510 1509 1509 1508 1507 1506 1504 1502 1501 1499 1497 1494 1491 1490 1486 1482 1479 1476 1473 1469 1463 1458 1453 1448 1443 1439 1435 1429 1423 1414 1407 1399 1391 1384 1377 1373 1367 1363 1367 1367 1367 1367
1508 1508 1508 1507 1507 1507 1506 1505 1504 1502 1501 1498 1496 1493 1490 1487 1484 1481 1478 1474 1469 1463 1458 1452 1448 1443 1437 1434 1429 1421 1414 1406 1399 1393 1384 1377 1370 1364 1360 1359 1362 1365 1363
1508 1508 1508 1508 1508 1507 1506 1507 1505 1504 1502 1500 1498 1495 1491 1488 1485 1482 1479 1474 1469 1464 1459 1453 1448 1443 1438 1434 1429 1422 1415 1408 1401 1394 1385 1377 1370 1364 1360 1358 1358 1360 1361
1508 1508 1508 1509 1508 1508 1508 1508 1507 1505 1503 1501 1499 1497 1493 1489 1485 1482 1479 1475 1470 1466 1461 1455 1450 1446 1442 1438 1431 1424 1417 1410 1403 1396 1389 1381 1370 1361 1358 1358 1356 1357 1359
1508 1509 1509 1509 1510 1510 1510 1509 1508 1507 1505 1503 1500 1497 1494 1490 1487 1483 1480 1476 1472 1467 1462 1458 1453 1448 1443 1439 1433 1426 1419 1413 1407 1401 1396 1388 1381 1374 1367 1361 1355 1350 1352
1508 1508 1509 1510 1510 1511 1511 1511 1510 1509 1507 1504 1501 1498 1495 1492 1489 1485 1482 1478 1473 1469 1464 1460 1455 1450 1445 1441 1434 1428 1421 1415 1411 1406 1399 1394 1388 1382 1379 1371 1363 1359 1359
1507 1508 1509 1510 1511 1512 1511 1511 1511 1510 1508 1505 1502 1499 1497 1493 1491 1487 1484 1479 1475 1470 1466 1462 1457 1452 1447 1441 1435 1429 1422 1415 1410 1406 1402 1398 1392 1386 1379 1376 1372 1368 1365
1506 1507 1509 1510 1511 1511 1511 1511 1511 1510 1508 1505 1502 1500 1497 1494 1491 1488 1485 1480 1476 1472 1468 1463 1459 1454 1449 1444 1438 1432 1426 1422 1416 1411 1406 1400 1394 1387 1381 1375 1367 1364 1363
1504 1506 1507 1509 1509 1509 1510 1511 1510 1509 1508 1506 1502 1499 1497 1495 1491 1488 1484 1480 1477 1473 1469 1465 1460 1456 1451 1445 1439 1434 1429 1424 1418 1413 1407 1402 1396 1391 1385 1378 1374 1372 1369
1503 1505 1506 1507 1508 1509 1510 1510 1509 1508 1507 1505 1502 1500 1498 1495 1491 1488 1484 1480 1476 1473 1469 1464 1460 1456 1452 1446 1442 1437 1433 1428 1422 1416 1410 1405 1400 1393 1387 1384 1380 1375 1373
1503 1505 1506 1508 1508 1509 1509 1509 1508 1507 1506 1504 1502 1499 1497 1495 1492 1488 1485 1481 1477 1473 1469 1465 1462 1458 1454 1449 1445 1440 1434 1428 1423 1417 1411 1405 1399 1395 1392 1389 1386 1384 1382
1502 1504 1506 1507 1507 1508 1508 1508 1507 1506 1505 1503 1500 1498 1496 1494 1491 1488 1485 1481 1478 1474 1470 1467 1463 1459 1455 1450 1445 1440 1434 1428 1423 1417 1413 1409 1406 1403 1399 1394 1390 1386 1383
1502 1503 1505 1506 1506 1507 1507 1507 1505 1504 1502 1501 1498 1496 1494 1491 1489 1486 1482 1479 1476 1473 1469 1466 1462 1459 1455 1450 1445 1440 1436 1431 1427 1423 1418 1415 1410 1404 1398 1393 1387 1383 1380
1500 1501 1503 1504 1504 1505 1504 1504 1503 1501 1500 1498 1496 1493 1491 1489 1486 1483 1480 1477 1474 1471 1468 1465 1461 1456 1452 1448 1445 1441 1437 1432 1428 1425 1420 1415 1410 1405 1400 1395 1391 1387 1383
1497 1498 1499 1500 1501 1502 1501 1500 1499 1498 1496 1494 1493 1491 1489 1486 1484 1482 1479 1476 1474 1469 1466 1462 1459 1455 1451 1448 1444 1441 1437 1433 1430 1426 1422 1417 1412 1407 1403 1398 1394 1390 1386
1493 1494 1496 1496 1497 1497 1497 1496 1495 1494 1493 1491 1490 1488 1487 1485 1483 1480 1477 1474 1472 1468 1465 1462 1458 1455 1452 1449 1445 1442 1438 1435 1431 1427 1423 1418 1414 1410 1405 1400 1396 1392 1386
1490 1491 1493 1494 1494 1494 1494 1493 1492 1490 1489 1488 1487 1485 1484 1483 1481 1478 1476 1473 1470 1467 1464 1461 1458 1455 1451 1448 1445 1441 1438 1435 1431 1427 1423 1419 1415 1410 1405 1401 1397 1393 1389
1486 1488 1489 1490 1490 1490 1489 1488 1487 1486 1486 1485 1483 1482 1481 1480 1478 1476 1473 1470 1468 1466 1463 1460 1457 1454 1451 1447 1444 1441 1437 1434 1430 1427 1423 1419 1414 1410 1405 1401 1397 1393 1389
1482 1484 1485 1485 1485 1484 1484 1484 1483 1482 1482 1481 1480 1479 1478 1477 1475 1473 1469 1468 1466 1464 1461 1458 1455 1452 1449 1446 1443 1440 1436 1432 1429 1425 1421 1417 1413 1409 1404 1400 1396 1391 1387
1479 1479 1480 1480 1481 1481 1480 1480 1479 1480 1479 1478 1477 1476 1474 1473 1471 1468 1466 1465 1463 1461 1458 1456 1453 1450 1447 1444 1441 1438 1434 1431 1427 1423 1419 1415 1411 1407 1403 1399 1394 1390 1385
1474 1475 1475 1476 1476 1476 1475 1475 1475 1475 1475 1474 1472 1471 1470 1469 1467 1465 1463 1461 1459 1457 1455 1452 1449 1446 1444 1441 1438 1435 1432 1428 1425 1421 1417 1413 1409 1405 1400 1396 1391 1387 1383
1468 1469 1470 1470 1471 1471 1470 1470 1470 1470 1469 1468 1468 1467 1465 1464 1462 1461 1459 1457 1455 1453 1451 1449 1446 1443 1441 1438 1435 1432 1429 1425 1422 1418 1415 1411 1406 1402 1397 1392 1388 1384 1380
1463 1464 1465 1466 1466 1466 1466 1465 1465 1465 1464 1464 1463 1462 1460 1459 1458 1457 1455 1453 1451 1449 1447 1445 1442 1439 1436 1434 1431 1428 1425 1421 1418 1414 1411 1408 1404 1399 1394 1389 1385 1381 1377
1457 1458 1459 1459 1460 1460 1461 1461 1461 1460 1459 1458 1457 1457 1456 1454 1453 1452 1451 1449 1447 1445 1443 1440 1437 1434 1431 1428 1425 1422 1419 1416 1412 1408 1405 1402 1398 1394 1390 1385 1381 1377 1374
1451 1451 1452 1453 1454 1455 1455 1455 1455 1455 1455 1454 1453 1452 1451 1450 1449 1448 1447 1445 1443 1440 1438 1435 1432 1429 1425 1422 1418 1415 1411 1408 1405 1402 1398 1395 1391 1387 1384 1380 1376 1373 1370